FW0435 Weather Reports


Display with metric or nautical units.
time (UTC)temp
F
wind
direction
speed
MPH
gust
MPH
rain 1hr
in
rain 24hr
in
rain mn
in
humidity
%
barometer
mb
20260507170021 62 338 4.0 9.0 0.00 0.00 0.00 50 1011.9
20260507164521 62 321 3.0 7.0 0.00 0.00 0.00 48 1012.1
20260507163020 62 316 1.0 6.0 0.00 0.00 0.00 51 1012.3
20260507161517 61 323 4.0 10.0 0.00 0.00 0.00 51 1012.4
20260507160016 61 75 1.0 4.0 0.00 0.00 0.00 53 1012.7
20260507154514 61 31 1.0 6.0 0.00 0.00 0.00 58 1012.9
20260507153010 61 326 1.0 4.0 0.00 0.00 0.00 59 1013.1
20260507151508 59 324 3.0 7.0 0.00 0.00 0.00 59 1013.2
20260507150005 58 13 1.0 5.0 0.00 0.00 0.00 60 1013.3
20260507144502 56 328 3.0 6.0 0.00 0.01 0.00 66 1013.5
20260507143004 55 323 3.0 5.0 0.00 0.01 0.00 66 1013.8
20260507141603 55 335 2.0 6.0 0.00 0.01 0.00 64 1014.0
20260507140100 55 326 4.0 6.0 0.00 0.01 0.00 64 1014.2
20260507134611 54 342 2.0 6.0 0.00 0.06 0.00 62 1014.3
20260507133059 54 319 2.0 4.0 0.00 0.06 0.00 66 1014.4
20260507131558 54 337 2.0 5.0 0.00 0.06 0.00 64 1014.5
20260507130109 53 348 2.0 5.0 0.00 0.06 0.00 65 1014.5
20260507124618 54 334 3.0 5.0 0.00 0.14 0.00 67 1014.5
20260507123107 53 330 2.0 6.0 0.00 0.14 0.00 67 1014.3
20260507121559 53 28 0.0 3.0 0.00 0.14 0.00 69 1014.3
20260507120052 53 323 0.0 3.0 0.00 0.14 0.00 70 1014.0
20260507114553 52 67 0.0 0.0 0.00 0.23 0.00 69 1014.1
20260507113049 52 341 0.0 2.0 0.00 0.23 0.00 68 1013.8
20260507111549 52 15 0.0 0.0 0.00 0.23 0.00 69 1014.0
20260507110047 53 359 0.0 1.0 0.00 0.23 0.00 69 1013.9
20260507104550 53 346 0.0 2.0 0.00 0.23 0.00 69 1013.9
20260507103044 53 11 0.0 2.0 0.00 0.23 0.00 67 1013.5
20260507101550 53 8 0.0 2.0 0.00 0.23 0.00 71 1013.2
20260507100049 53 330 0.0 1.0 0.00 0.23 0.00 73 1013.1
20260507094537 53 349 0.0 3.0 0.00 0.23 0.00 73 1012.9
20260507093035 54 352 2.0 4.0 0.00 0.23 0.00 74 1012.8
20260507091532 54 359 2.0 5.0 0.00 0.23 0.00 79 1012.7
20260507090033 54 338 2.0 5.0 0.00 0.23 0.00 80 1012.8
20260507084531 54 351 0.0 3.0 0.00 0.23 0.00 81 1012.8
20260507083030 54 342 3.0 5.0 0.00 0.23 0.00 80 1012.7
20260507081528 54 325 1.0 3.0 0.00 0.23 0.00 82 1012.8
20260507080027 54 335 1.0 2.0 0.00 0.23 0.00 82 1012.4
20260507074527 55 34 0.0 0.0 0.00 0.23 0.00 82 1012.3
20260507073030 55 345 0.0 2.0 0.00 0.23 0.00 81 1012.2
20260507071528 55 25 0.0 0.0 0.00 0.23 0.00 83 1012.3
20260507070035 55 36 0.0 1.0 0.00 0.23 0.00 82 1012.2
20260507064534 55 355 1.0 3.0 0.00 0.23 0.00 81 1012.3
20260507063028 56 13 1.0 4.0 0.00 0.23 0.00 82 1012.6
20260507061521 56 347 2.0 4.0 0.00 0.23 0.00 82 1012.7
20260507060024 56 328 2.0 4.0 0.00 0.23 0.00 83 1012.6
20260507054520 56 342 0.0 1.0 0.00 0.23 0.00 84 1012.7
20260507053017 56 340 0.0 2.0 0.00 0.23 0.00 84 1012.6
20260507051515 56 335 2.0 4.0 0.00 0.23 0.00 83 1012.5
20260507050017 56 30 1.0 5.0 0.00 0.23 0.00 83 1012.7
20260507044612 56 341 2.0 4.0 0.00 0.23 0.00 84 1012.5
20260507043012 57 26 1.0 4.0 0.00 0.23 0.00 83 1012.0
20260507041523 57 328 4.0 9.0 0.00 0.23 0.00 83 1012.4
20260507040006 57 326 2.0 4.0 0.00 0.23 0.00 83 1011.8
20260507034505 57 316 5.0 9.0 0.00 0.23 0.23 82 1012.3
20260507033003 58 355 3.0 6.0 0.00 0.23 0.23 82 1012.0
20260507031601 59 8 1.0 4.0 0.00 0.23 0.23 82 1011.9
20260507030100 59 353 1.0 4.0 0.00 0.23 0.23 82 1012.0
20260507024616 59 23 1.0 9.0 0.00 0.23 0.23 82 1011.8
20260507023055 60 340 7.0 11.0 0.00 0.23 0.23 81 1011.6
20260507021552 60 326 3.0 6.0 0.00 0.23 0.23 83 1011.5
20260507020107 60 340 4.0 8.0 0.00 0.23 0.23 83 1011.2
20260507014603 61 326 3.0 6.0 0.00 0.23 0.23 83 1011.5
20260507013052 61 350 0.0 2.0 0.00 0.23 0.23 85 1011.1
20260507011549 62 70 1.0 3.0 0.00 0.23 0.23 85 1010.7
20260507010049 63 320 0.0 6.0 0.00 0.23 0.23 86 1011.1
20260507004548 64 329 4.0 6.0 0.00 0.23 0.23 85 1011.3
20260507003047 64 347 3.0 5.0 0.00 0.23 0.23 85 1011.1
20260507001548 65 342 2.0 7.0 0.00 0.23 0.23 84 1010.8
20260507000045 65 335 2.0 6.0 0.00 0.23 0.23 83 1010.1
20260506234551 66 313 3.0 5.0 0.00 0.23 0.23 83 1010.1
20260506233043 66 318 4.0 5.0 0.00 0.23 0.23 85 1010.0
20260506231551 67 333 3.0 7.0 0.00 0.23 0.23 85 1009.5
20260506230053 67 332 5.0 8.0 0.00 0.23 0.23 85 1009.0
20260506224541 69 280 0.0 0.0 0.00 0.23 0.23 84 1009.0
20260506223051 69 210 0.0 2.0 0.00 0.23 0.23 84 1008.9
20260506221540 69 286 0.0 4.0 0.00 0.23 0.23 83 1008.9
20260506220040 69 297 0.0 0.0 0.00 0.23 0.23 83 1008.8
20260506214540 69 223 0.0 1.0 0.00 0.23 0.23 84 1008.8
20260506213059 68 184 0.0 5.0 0.00 0.23 0.23 84 1008.9
20260506211549 69 154 1.0 8.0 0.00 0.23 0.23 83 1008.6
20260506210037 69 169 0.0 4.0 0.00 0.23 0.23 82 1008.3
20260506204546 69 219 0.0 5.0 0.00 0.23 0.23 83 1008.3
20260506203040 69 214 1.0 4.0 0.00 0.23 0.23 83 1008.1
20260506201550 69 242 2.0 7.0 0.00 0.23 0.23 83 1008.2
20260506200035 69 212 1.0 8.0 0.00 0.23 0.23 83 1008.2
20260506194536 68 264 2.0 8.0 0.00 0.23 0.23 82 1008.3
20260506193034 69 269 1.0 7.0 0.00 0.23 0.23 82 1008.3
20260506191533 69 263 2.0 8.0 0.00 0.23 0.23 81 1008.5
20260506190028 70 201 3.0 8.0 0.00 0.23 0.23 81 1008.4
20260506184526 69 167 1.0 5.0 0.00 0.23 0.23 82 1008.4
20260506183030 68 167 2.0 0.0 0.00 0.00 0.23 83 1008.6
20260506181523 67 225 2.0 10.0 0.00 0.23 0.23 84 1008.7
20260506180022 67 181 1.0 7.0 0.00 0.23 0.23 84 1008.8
20260506174521 67 205 0.0 10.0 0.00 0.23 0.23 84 1008.9
20260506173023 67 233 5.0 12.0 0.00 0.23 0.23 83 1008.9
20260506171620 68 156 4.0 10.0 0.00 0.23 0.23 84 1009.0